Volver al catálogo

OPS 9751

ActivoMilitarMEO
NORAD 10016·PAYLOAD·🇺🇸 United States

Lanzado May 23, 1977 desde Cape Canaveral Space Force Station

Loading…

Próximos Pases (próximas 24 horas)

TLE

ActualizadoSource: Space-Track

Época: Sep 13, 2026, 19:16 UTC

1 10016U 77038A   26256.80334818 -.00000182  00000-0  00000-0 0  9991
2 10016   7.2717 332.2219 1304898 133.7525 251.7849  1.00232315 27344

Sigue OPS 9751 en tiempo real con AllMySat

Download on the App Store